| time (UTC) | temp F | wind direction | speed MPH | gust MPH | rain 1hr in | rain 24hr in | rain mn in | humidity % | barometer mb |
| 20260505230055 | 41 | 273 | 17.0 | 23.0 | 0.00 | 0.00 | 0.00 | 58 | 1008.4 |
| 20260505224547 | 41 | 293 | 14.0 | 25.0 | 0.00 | 0.00 | 0.00 | 57 | 1008.4 |
| 20260505223046 | 41 | 296 | 13.0 | 23.0 | 0.00 | 0.00 | 0.00 | 61 | 1008.3 |
| 20260505221544 | 41 | 314 | 23.0 | 27.0 | 0.00 | 0.00 | 0.00 | 55 | 1008.2 |
| 20260505220046 | 41 | 304 | 21.0 | 26.0 | 0.00 | 0.00 | 0.00 | 57 | 1008.2 |
| 20260505214538 | 41 | 284 | 15.0 | 23.0 | 0.00 | 0.00 | 0.00 | 60 | 1008.2 |
| 20260505213054 | 40 | 310 | 14.0 | 24.0 | 0.00 | 0.00 | 0.00 | 56 | 1008.1 |
| 20260505211547 | 40 | 314 | 14.0 | 20.0 | 0.00 | 0.00 | 0.00 | 58 | 1007.9 |
| 20260505210043 | 39 | 315 | 15.0 | 19.0 | 0.00 | 0.00 | 0.00 | 58 | 1008.0 |
| 20260505204544 | 39 | 298 | 12.0 | 18.0 | 0.00 | 0.00 | 0.00 | 59 | 1008.0 |
| 20260505203042 | 39 | 327 | 12.0 | 23.0 | 0.00 | 0.00 | 0.00 | 59 | 1008.0 |
| 20260505201538 | 38 | 332 | 16.0 | 21.0 | 0.00 | 0.00 | 0.00 | 60 | 1008.0 |
| 20260505200046 | 38 | 318 | 15.0 | 24.0 | 0.00 | 0.00 | 0.00 | 59 | 1007.9 |
| 20260505194547 | 38 | 296 | 16.0 | 26.0 | 0.00 | 0.00 | 0.00 | 63 | 1008.0 |
| 20260505193042 | 38 | 315 | 18.0 | 25.0 | 0.00 | 0.00 | 0.00 | 61 | 1008.0 |
| 20260505191603 | 37 | 288 | 20.0 | 26.0 | 0.00 | 0.00 | 0.00 | 61 | 1007.9 |
| 20260505190043 | 37 | 291 | 18.0 | 24.0 | 0.00 | 0.00 | 0.00 | 62 | 1007.9 |
| 20260505184539 | 37 | 306 | 18.0 | 28.0 | 0.00 | 0.00 | 0.00 | 66 | 1007.7 |
| 20260505183042 | 37 | 288 | 19.0 | 25.0 | 0.00 | 0.00 | 0.00 | 65 | 1007.5 |
| 20260505181541 | 36 | 294 | 17.0 | 25.0 | 0.00 | 0.00 | 0.00 | 64 | 1007.5 |
| 20260505180058 | 36 | 294 | 18.0 | 25.0 | 0.00 | 0.00 | 0.00 | 63 | 1007.6 |
| 20260505174555 | 36 | 290 | 20.0 | 26.0 | 0.00 | 0.00 | 0.00 | 64 | 1007.6 |
| 20260505173047 | 35 | 300 | 18.0 | 24.0 | 0.00 | 0.00 | 0.00 | 64 | 1007.5 |
| 20260505171548 | 35 | 298 | 16.0 | 20.0 | 0.00 | 0.00 | 0.00 | 64 | 1007.4 |
| 20260505170043 | 35 | 314 | 17.0 | 21.0 | 0.00 | 0.00 | 0.00 | 67 | 1007.5 |
| 20260505164546 | 35 | 293 | 18.0 | 22.0 | 0.00 | 0.00 | 0.00 | 64 | 1007.2 |
| 20260505163039 | 35 | 306 | 18.0 | 29.0 | 0.00 | 0.00 | 0.00 | 64 | 1007.2 |
| 20260505161551 | 34 | 301 | 21.0 | 29.0 | 0.00 | 0.00 | 0.00 | 61 | 1007.0 |
| 20260505153045 | 34 | 306 | 21.0 | 32.0 | 0.00 | 0.00 | 0.00 | 65 | 1006.7 |
| 20260505151540 | 35 | 306 | 21.0 | 28.0 | 0.00 | 0.00 | 0.00 | 64 | 1006.4 |
| 20260505124542 | 34 | 316 | 12.0 | 20.0 | 0.00 | 0.00 | 0.00 | 75 | 1004.7 |
| 20260505123042 | 34 | 313 | 14.0 | 19.0 | 0.00 | 0.00 | 0.00 | 74 | 1004.5 |
| 20260505121540 | 35 | 311 | 17.0 | 23.0 | 0.00 | 0.00 | 0.00 | 75 | 1004.5 |
| 20260505120045 | 35 | 297 | 17.0 | 24.0 | 0.00 | 0.00 | 0.00 | 76 | 1004.2 |
| 20260505114544 | 35 | 312 | 19.0 | 26.0 | 0.00 | 0.00 | 0.00 | 75 | 1004.0 |
| 20260505113049 | 36 | 306 | 19.0 | 26.0 | 0.00 | 0.00 | 0.00 | 77 | 1003.7 |
| 20260505111543 | 36 | 287 | 18.0 | 25.0 | 0.00 | 0.00 | 0.00 | 77 | 1003.4 |
| 20260505101556 | 37 | 302 | 14.0 | 21.0 | 0.00 | 0.00 | 0.00 | 75 | 1002.6 |
| 20260505100100 | 37 | 311 | 15.0 | 21.0 | 0.00 | 0.00 | 0.00 | 75 | 1002.6 |
| 20260505094544 | 37 | 299 | 14.0 | 23.0 | 0.00 | 0.00 | 0.00 | 75 | 1002.4 |
| 20260505093051 | 37 | 308 | 16.0 | 23.0 | 0.00 | 0.00 | 0.00 | 74 | 1002.3 |
| 20260505091542 | 37 | 306 | 16.0 | 21.0 | 0.00 | 0.00 | 0.00 | 73 | 1002.2 |
| 20260505090037 | 38 | 294 | 15.0 | 19.0 | 0.00 | 0.00 | 0.00 | 73 | 1002.0 |
| 20260505084546 | 38 | 301 | 16.0 | 22.0 | 0.00 | 0.00 | 0.00 | 74 | 1001.9 |
| 20260505083044 | 38 | 298 | 15.0 | 20.0 | 0.00 | 0.00 | 0.00 | 75 | 1001.9 |
| 20260505081556 | 38 | 298 | 14.0 | 19.0 | 0.00 | 0.00 | 0.00 | 75 | 1001.7 |
| 20260505080053 | 38 | 296 | 13.0 | 17.0 | 0.00 | 0.00 | 0.00 | 73 | 1001.6 |
| 20260505074542 | 39 | 298 | 15.0 | 20.0 | 0.00 | 0.00 | 0.00 | 72 | 1001.5 |
| 20260505073045 | 39 | 305 | 12.0 | 18.0 | 0.00 | 0.00 | 0.00 | 72 | 1001.5 |
| 20260505071551 | 40 | 296 | 13.0 | 18.0 | 0.00 | 0.00 | 0.00 | 72 | 1001.6 |
| 20260505070045 | 40 | 292 | 11.0 | 18.0 | 0.00 | 0.00 | 0.00 | 72 | 1001.5 |
| 20260505064543 | 40 | 300 | 14.0 | 19.0 | 0.00 | 0.00 | 0.00 | 71 | 1001.5 |
| 20260505063048 | 41 | 298 | 14.0 | 20.0 | 0.00 | 0.00 | 0.00 | 71 | 1001.5 |
| 20260505061541 | 41 | 309 | 14.0 | 19.0 | 0.00 | 0.00 | 0.00 | 69 | 1001.6 |
| 20260505060050 | 41 | 298 | 13.0 | 17.0 | 0.00 | 0.00 | 0.00 | 70 | 1001.6 |
| 20260505054544 | 41 | 308 | 9.0 | 14.0 | 0.00 | 0.00 | 0.00 | 69 | 1001.5 |
| 20260505053047 | 41 | 322 | 10.0 | 14.0 | 0.00 | 0.00 | 0.00 | 69 | 1001.5 |
| 20260505051545 | 41 | 327 | 13.0 | 18.0 | 0.00 | 0.00 | 0.00 | 69 | 1001.6 |
| 20260505041537 | 43 | 325 | 12.0 | 17.0 | 0.00 | 0.00 | 0.00 | 62 | 1001.2 |
| 20260505040046 | 43 | 299 | 14.0 | 19.0 | 0.00 | 0.00 | 0.00 | 59 | 1001.1 |
| 20260505034546 | 44 | 304 | 14.0 | 20.0 | 0.00 | 0.00 | 0.00 | 61 | 1001.0 |
| 20260505033038 | 44 | 290 | 13.0 | 17.0 | 0.00 | 0.00 | 0.00 | 60 | 1000.8 |
| 20260505031543 | 44 | 294 | 14.0 | 19.0 | 0.00 | 0.00 | 0.00 | 57 | 1000.7 |
| 20260505030044 | 44 | 287 | 16.0 | 22.0 | 0.00 | 0.00 | 0.00 | 57 | 1000.6 |
| 20260505024544 | 44 | 298 | 18.0 | 24.0 | 0.00 | 0.00 | 0.00 | 56 | 1000.5 |
| 20260505023050 | 45 | 278 | 18.0 | 23.0 | 0.00 | 0.00 | 0.00 | 56 | 1000.4 |
| 20260505021541 | 44 | 300 | 18.0 | 23.0 | 0.00 | 0.00 | 0.00 | 57 | 1000.2 |
| 20260505020041 | 44 | 304 | 17.0 | 22.0 | 0.00 | 0.00 | 0.00 | 58 | 1000.0 |
| 20260505014539 | 44 | 291 | 15.0 | 22.0 | 0.00 | 0.00 | 0.00 | 60 | 999.9 |
| 20260505013043 | 44 | 288 | 14.0 | 24.0 | 0.00 | 0.00 | 0.00 | 60 | 999.7 |
| 20260505011544 | 45 | 293 | 17.0 | 28.0 | 0.00 | 0.00 | 0.00 | 60 | 999.5 |
| 20260505010104 | 45 | 283 | 18.0 | 28.0 | 0.00 | 0.00 | 0.00 | 60 | 999.3 |
| 20260505004540 | 45 | 266 | 22.0 | 34.0 | 0.00 | 0.00 | 0.00 | 62 | 999.3 |
| 20260505003046 | 45 | 285 | 26.0 | 35.0 | 0.00 | 0.00 | 0.00 | 60 | 999.1 |
| 20260505001544 | 46 | 286 | 20.0 | 32.0 | 0.00 | 0.00 | 0.00 | 60 | 998.9 |
| 20260505000048 | 46 | 286 | 19.0 | 30.0 | 0.00 | 0.00 | 0.00 | 62 | 998.5 |
| 20260504234540 | 46 | 285 | 22.0 | 30.0 | 0.00 | 0.00 | 0.00 | 61 | 998.4 |
| 20260504233040 | 47 | 298 | 20.0 | 29.0 | 0.00 | 0.00 | 0.00 | 59 | 998.1 |
| 20260504231544 | 47 | 303 | 22.0 | 28.0 | 0.00 | 0.00 | 0.00 | 57 | 998.1 |